This demonstration page uses our WeatherBlox Daily Observations layout. Learn more.

Left ArrowRight Arrow

39.51506, -84.39828

Hourly Observations for August 27, 2016

Temp ( °F °C ) Dew Point ( °F °C ) Humidity (%) Winds ( mph kmh ) Pressure ( in mb ) Visibility ( mi km ) Precip ( " mm )
12:15 am 00:15 Clear 74 23.6 68 20.2 81 81 N 3 6 30.09 1019 10 16 N/A
12:35 am 00:35 Clear 74 23.6 68 20.2 81 81 N N/A 30.09 1019 10 16 N/A
12:55 am 00:55 Clear 74 23.6 68 20.2 81 81 N N/A 30.09 1019 10 16 N/A
1:15 am 01:15 Clear 74 23.4 68 20.2 82 82 N N/A 30.09 1019 10 16 N/A
1:35 am 01:35 Clear 74 23.6 69 20.5 83 83 N N/A 30.09 1019 10 16 N/A
1:55 am 01:55 Clear 74 23.6 69 20.5 83 83 N N/A 30.09 1019 10 16 N/A
2:15 am 02:15 Clear 74 23.6 69 20.6 83 83 N N/A 30.09 1019 10 16 N/A
2:35 am 02:35 Clear 72 22.3 67 19.5 84 84 N N/A 30.09 1019 10 16 N/A
2:55 am 02:55 Clear 74 23.5 69 20.8 85 85 N N/A 30.09 1019 7 11 N/A
3:15 am 03:15 Clear 74 23.6 70 21 85 85 N N/A 30.09 1019 10 16 N/A
3:35 am 03:35 Clear 73 22.6 68 19.8 84 84 N N/A 30.09 1019 7 11 N/A
3:55 am 03:55 Clear 72 22.3 67 19.6 85 85 N N/A 30.09 1019 10 16 N/A
4:15 am 04:15 Clear 72 22.3 67 19.6 85 85 N N/A 30.09 1019 7 11 N/A
4:35 am 04:35 Clear 72 22.3 67 19.6 85 85 N N/A 30.09 1019 10 16 N/A
4:55 am 04:55 Clear 72 22.3 67 19.6 85 85 N N/A 30.09 1019 10 16 N/A
5:15 am 05:15 Clear 72 22.3 67 19.6 85 85 N N/A 30.09 1019 10 16 N/A
5:35 am 05:35 Clear 72 22.3 67 19.6 85 85 N N/A 30.09 1019 10 16 N/A
5:55 am 05:55 Clear 72 22.3 67 19.6 85 85 N N/A 30.09 1019 10 16 N/A
6:15 am 06:15 Clear 71 21.7 66 19.1 85 85 N N/A 30.09 1019 7 11 N/A
6:35 am 06:35 Clear 71 21.7 66 19.1 85 85 N N/A 30.09 1019 7 11 N/A
6:55 am 06:55 Clear 71 21.7 66 19.1 85 85 N N/A 30.09 1019 7 11 N/A
7:15 am 07:15 Sunny 72 22.3 67 19.6 85 85 N N/A 30.09 1019 7 11 N/A
7:35 am 07:35 Sunny 73 22.9 68 20.2 85 85 NE 3 6 30.09 1019 7 11 N/A
7:55 am 07:55 Sunny 74 23.6 70 21 85 85 N N/A 30.09 1019 7 11 N/A
8:15 am 08:15 Sunny 74 23.6 70 21 85 85 N N/A 30.09 1019 7 11 N/A
8:35 am 08:35 Sunny 74 23.6 70 21 85 85 N N/A 30.12 1020 7 11 N/A
8:55 am 08:55 Sunny 74 23.6 69 20.6 83 83 N 3 6 30.12 1020 10 16 N/A
9:15 am 09:15 Sunny 77 25.1 71 21.6 81 81 N N/A 30.12 1020 10 16 N/A
9:35 am 09:35 Sunny 80 26.5 72 22.3 78 78 N N/A 30.12 1020 10 16 N/A
9:55 am 09:55 Sunny 80 26.8 72 22 75 75 NNE 3 6 30.12 1020 10 16 N/A
10:15 am 10:15 Sunny 82 27.6 72 22.4 73 73 N N/A 30.12 1020 10 16 N/A
10:35 am 10:35 Sunny 83 28.6 71 21.7 66 66 N N/A 30.12 1020 10 16 N/A
10:55 am 10:55 Sunny 85 29.7 72 22.3 64 64 SSW 5 7 30.09 1019 10 16 N/A
11:15 am 11:15 Sunny 89 31.8 74 23.1 60 60 SSW 3 6 30.09 1019 10 16 N/A
11:35 am 11:35 Sunny 90 32.1 74 23.1 59 59 N N/A 30.09 1019 10 16 N/A
11:55 am 11:55 Sunny 90 32.1 72 22.2 56 56 ESE 6 9 30.06 1018 10 16 N/A
12:15 pm 12:15 Sunny 90 32.1 71 21.9 55 55 N N/A 30.06 1018 10 16 N/A
12:35 pm 12:35 Partly Cloudy 90 32.1 69 20.5 50 50 SE 8 13 30.06 1018 10 16 N/A
12:55 pm 12:55 Partly Cloudy 90 32.1 68 20 49 49 SSE 8 13 30.06 1018 10 16 N/A
1:15 pm 13:15 Mostly Cloudy 94 34.5 67 19.5 41 41 SSW 7 11 30.03 1017 10 16 N/A
1:35 pm 13:35 Partly Cloudy 91 33 67 19.3 44 44 SW 8 13 30.03 1017 10 16 N/A
1:55 pm 13:55 Mostly Cloudy 90 32.1 67 19.7 48 48 SSW 5 7 30.06 1018 10 16 N/A
2:15 pm 14:15 Partly Cloudy 95 35 69 20.3 42 42 SW 7 11 30.06 1018 10 16 N/A
2:35 pm 14:35 Mostly Cloudy 90 32.1 66 19 46 46 W 33 54 30.09 1019 10 16 N/A
2:55 pm 14:55 Cloudy with Heavy Rain 71 21.6 65 18.1 81 81 W 17 28 30.15 1021 1 2 N/A
3:15 pm 15:15 Cloudy with Light Rain 74 23.1 67 19.2 79 79 ENE 3 6 30.15 1021 10 16 N/A
3:35 pm 15:35 Cloudy with Light Rain 74 23.6 67 19.6 78 78 NNE 6 9 30.12 1020 10 16 N/A
3:55 pm 15:55 Partly Cloudy 74 23.6 67 19.3 77 77 NE 5 7 30.09 1019 10 16 N/A
4:15 pm 16:15 Sunny 77 25 68 19.9 73 73 ENE 6 9 30.09 1019 10 16 N/A
4:35 pm 16:35 Sunny 77 25.2 67 19.4 70 70 NE 6 9 30.09 1019 10 16 N/A
4:55 pm 16:55 Sunny 80 26.5 67 19.3 65 65 NNE 6 9 30.09 1019 10 16 N/A
5:15 pm 17:15 Sunny 80 26.5 68 19.8 67 67 NE 8 13 30.09 1019 10 16 N/A
5:35 pm 17:35 Sunny 80 26.5 67 19.7 66 66 NE 6 9 30.06 1018 10 16 N/A
5:55 pm 17:55 Sunny 81 27.2 68 19.9 64 64 E 5 7 30.09 1019 10 16 N/A
6:15 pm 18:15 Sunny 82 28 67 19.5 60 60 NE 3 6 30.06 1018 10 16 N/A
6:35 pm 18:35 Sunny 82 27.7 67 19.3 60 60 E 5 7 30.06 1018 10 16 N/A
6:55 pm 18:55 Sunny 82 28 67 19.3 59 59 E 5 7 30.06 1018 10 16 N/A
7:15 pm 19:15 Sunny 82 27.9 67 19.4 60 60 SE 5 7 30.09 1019 10 16 N/A
7:35 pm 19:35 Sunny 81 27.1 67 19.6 64 64 SE 3 6 30.09 1019 10 16 N/A
7:55 pm 19:55 Sunny 80 26.5 65 18.6 62 62 SE 3 6 30.09 1019 10 16 N/A
8:15 pm 20:15 Sunny 80 26.5 67 19.5 65 65 N N/A 30.09 1019 10 16 N/A
8:35 pm 20:35 Clear 77 25.1 70 21.2 79 79 N N/A 30.09 1019 10 16 N/A
8:55 pm 20:55 Clear 74 23.6 68 20.1 81 81 N N/A 30.12 1020 10 16 N/A
9:15 pm 21:15 Clear 76 24.7 69 20.7 79 79 SE 3 6 30.12 1020 10 16 N/A
9:35 pm 21:35 Clear 74 23.6 68 20 80 80 N N/A 30.12 1020 10 16 N/A
9:55 pm 21:55 Clear 75 23.7 68 19.9 79 79 N N/A 30.12 1020 10 16 N/A
10:15 pm 22:15 Clear 74 23.6 69 20.5 83 83 N N/A 30.12 1020 10 16 N/A
10:35 pm 22:35 Clear 74 23.6 69 20.5 83 83 N N/A 30.12 1020 10 16 N/A
10:55 pm 22:55 Clear 74 23.6 69 20.6 83 83 N N/A 30.12 1020 10 16 N/A
11:15 pm 23:15 Clear 74 23.6 69 20.6 83 83 N N/A 30.12 1020 10 16 N/A
11:35 pm 23:35 Clear 74 23.6 69 20.7 84 84 N N/A 30.12 1020 10 16 N/A
11:55 pm 23:55 Clear 74 23.6 70 21 85 85 N N/A 30.12 1020 10 16 N/A

Powered by AerisWeather